Home > Time Zones > World Clock > Weather > Italy > Monza > Past weeks

Flag for Italy Weather past 2 weeks in Monza, Italy

Now
75 °F

Passing clouds.


Feels Like: 77 °F
Forecast: 53 / 74 °F
Wind: 3 mph from West

Location: Milan / Linate

Current Time: May 28, 2015 at 8:27:50 PM

Latest Report: May 28, 2015 at 7:50 PM


Visibility: N/A

Pressure: 29.98 "Hg

Humidity: 39%

Dew point: 48 °F

Location of MonzaLocation

Historic Weather in Monza — Graph

°F

Monza temperature yesterday

Maximum temperature yesterday: 75 °F (at 4:50 PM)
Minimum temperature yesterday: 54 °F (at 5:20 AM)
Average temperature yesterday: 65 °F

Past Weeks' High & Low Weather Summary

 TemperatureHumidityPressure
High84 °F (May 14, 3:50 PM)100% (May 15, 10:20 PM)30.12 "Hg (May 15, 10:20 PM)
Low50 °F (May 21, 5:50 AM)34% (May 25, 6:50 PM)29.56 "Hg (May 15, 12:20 PM)
Average66 °F70%29.90 "Hg
* Reported May 13 7:20 PM — May 28 7:20 PM, Monza, Weather by CustomWeather, © 2015

Note: Actual official high and low records may vary slightly from our data, if they occured in-between our weather recording intervals... More about our weather records

Advertising

Monza weather history for previous 24 hours

 ConditionsComfort  
Time TempWeatherWind HumidityBarometerVisibility
7:20 PM
Thu, May 28
75 °FPassing clouds.6 mph41%29.98 "HgN/A
6:50 PM75 °FPassing clouds.5 mph41%29.98 "HgN/A
6:20 PM77 °FPassing clouds.6 mph39%29.98 "HgN/A
5:50 PM77 °FPassing clouds.6 mph39%29.98 "HgN/A
5:20 PM75 °FPassing clouds.6 mph39%29.98 "HgN/A
4:50 PM75 °FSunny.3 mph39%30.01 "Hg10 mi
4:20 PM75 °FPassing clouds.6 mph39%30.01 "HgN/A
3:50 PM75 °FSunny.2 mph41%30.01 "Hg10 mi
3:20 PM73 °FSunny.5 mph41%30.04 "Hg10 mi
2:50 PM73 °FPassing clouds.5 mph44%30.04 "HgN/A
2:20 PM72 °FPassing clouds.6 mph47%30.04 "HgN/A
1:50 PM72 °FPassing clouds.5 mph44%30.07 "HgN/A
1:20 PM70 °FPassing clouds.5 mph43%30.07 "HgN/A
12:50 PM70 °FPassing clouds.5 mph50%30.07 "HgN/A
12:20 PM70 °FPassing clouds.7 mph46%30.07 "HgN/A
11:50 AM68 °FPassing clouds.6 mph56%30.09 "HgN/A
11:20 AM68 °FPassing clouds.7 mph56%30.09 "HgN/A
10:50 AM66 °FPassing clouds.8 mph56%30.09 "HgN/A
10:20 AM66 °FPassing clouds.8 mph56%30.09 "HgN/A
9:50 AM66 °FPassing clouds.9 mph52%30.09 "HgN/A
9:20 AM64 °FPassing clouds.9 mph56%30.09 "HgN/A
8:50 AM64 °FPassing clouds.8 mph60%30.09 "HgN/A
8:20 AM63 °FSunny.12 mph64%30.09 "Hg10 mi
7:50 AM63 °FSunny.9 mph64%30.09 "Hg10 mi
7:20 AM61 °FPassing clouds.7 mph72%30.07 "HgN/A
6:50 AM59 °FPassing clouds.7 mph77%30.07 "HgN/A
6:20 AM57 °FClear.7 mph82%30.07 "Hg10 mi
5:50 AM57 °FClear.7 mph82%30.07 "Hg10 mi
5:20 AM57 °FPassing clouds.7 mph82%30.07 "HgN/A
4:50 AM57 °FPassing clouds.7 mph82%30.07 "HgN/A
4:20 AM57 °FClear.7 mph77%30.07 "Hg10 mi
3:50 AM57 °FClear.5 mph77%30.07 "Hg10 mi
3:20 AM57 °FClear.6 mph77%30.07 "Hg10 mi
2:50 AM57 °FClear.6 mph77%30.07 "Hg10 mi
2:20 AM59 °FClear.2 mph77%30.07 "Hg10 mi
1:50 AM59 °FPassing clouds.7 mph77%30.04 "HgN/A
1:20 AM59 °FClear.7 mph82%30.04 "Hg10 mi
12:50 AM61 °FClear.8 mph72%30.04 "Hg10 mi
12:20 AM61 °FClear.7 mph72%30.04 "Hg10 mi
11:50 PM
Wed, May 27
63 °FClear.7 mph68%30.01 "Hg10 mi
11:20 PM64 °FClear.7 mph60%30.01 "Hg10 mi
10:50 PM64 °FClear.5 mph60%30.01 "Hg10 mi
10:20 PM66 °FPassing clouds.6 mph56%30.01 "HgN/A
9:50 PM66 °FSunny.6 mph56%29.98 "Hg10 mi
9:20 PM68 °FPassing clouds.6 mph49%29.98 "HgN/A
8:50 PM68 °FSunny.7 mph49%29.95 "Hg10 mi
8:20 PM70 °FSunny.6 mph46%29.95 "Hg10 mi
Weather by CustomWeather, © 2015

See weather overviewHow to use our weather pages